User: anonymous   Login
Location: Arleux
(50.3632°N, 2.8721°E)
Time: 08:30:00
(UTC+00:00)
Language:

ATLAS 3B R/B - Orbit

View from above orbital plane
View from above orbital plane
View from above satellite
View from above satellite

Ground track
Ground track

The orbit data is extracted from the following two-line orbital elements,

1 28538U 05004B   20051.79356623 0.00000000  00000-0  00000-0 0    07
2 28538  63.8278 350.0151 0104075  55.4271 304.5729 13.43129026    09
Epoch (UTC): 20 February 2020 19:02:44
Eccentricity: 0.0104075
inclination: 63.8278°
perigee height: 1020 km
apogee height: 1175 km
right ascension of ascending node: 350.0151°
argument of perigee: 55.4271°
revolutions per day: 13.43129026
mean anomaly at epoch: 304.5729°
orbit number at epoch: 0

The dashed part of the orbit path shows where the satellite is in the earth's shadow,  

DLR